Home   Weather   Szczecin   Past weeks
Flag for Poland

Past Weather in Szczecin, Poland — Yesterday and Last 2 Weeks

Now
68 °F

Sunny.


Feels Like: 68 °F
Forecast: 58 / 52 °F
Wind: 9 mph from Southeast

Location: Szczecin Airport

Current Time: Oct 15, 2019 at 3:55:43 pm

Latest Report: Oct 15, 2019 at 3:00 pm


Visibility: 10 mi

Pressure: 29.74 "Hg

Humidity: 69%

Dew Point: 57 °F

Location of SzczecinLocation

Past Weather in Szczecin — Graph

°F

Szczecin Temperature Yesterday

Maximum temperature yesterday: 66 °F (at 1:00 am)
Minimum temperature yesterday: 54 °F (at 9:30 pm)
Average temperature yesterday: 62 °F

High & Low Weather Summary for the Past Weeks

 TemperatureHumidityPressure
High70 °F (Oct 13, 3:00 pm)100% (Oct 1, 9:30 am)30.18 "Hg (Oct 1, 9:30 am)
Low30 °F (Oct 6, 6:30 am)50% (Oct 6, 3:00 pm)29.39 "Hg (Sep 30, 2:00 pm)
Average51 °F86%29.82 "Hg
* Reported Sep 30 2:00 pm — Oct 15 2:30 pm, Szczecin. Weather by CustomWeather, © 2019

Note: Actual official high and low records may vary slightly from our data, if they occured in-between our weather recording intervals... More about our weather records

Advertising

Szczecin Weather History for the Previous 24 Hours

Scroll right to see more
 ConditionsComfort  
Time TempWeatherWind HumidityBarometerVisibility
2:30 pm
Tue, Oct 15
68 °FSunny.9 mph64%29.74 "Hg10 mi
2:00 pm68 °FPassing clouds.7 mph69%29.74 "HgN/A
1:30 pm68 °FPassing clouds.6 mph64%29.74 "HgN/A
1:00 pm66 °FPassing clouds.7 mph68%29.77 "HgN/A
12:30 pm64 °FSunny.7 mph73%29.77 "Hg10 mi
12:00 pm64 °FPassing clouds.7 mph73%29.80 "HgN/A
11:30 am63 °FSunny.9 mph77%29.80 "Hg10 mi
11:00 am61 °FSunny.10 mph77%29.80 "Hg10 mi
10:30 am59 °FSunny.12 mph82%29.80 "Hg10 mi
10:00 am57 °FSunny.9 mph82%29.80 "Hg10 mi
9:30 am55 °FSunny.14 mph88%29.83 "Hg10 mi
9:00 am55 °FSunny.10 mph88%29.83 "Hg10 mi
8:30 am54 °FSunny.7 mph88%29.83 "Hg10 mi
8:00 am52 °FPassing clouds.3 mph94%29.83 "HgN/A
7:30 am50 °FSunny.7 mph94%29.83 "Hg10 mi
7:00 am52 °FClear.6 mph94%29.83 "Hg10 mi
6:30 am52 °FClear.7 mph94%29.83 "Hg10 mi
6:00 am52 °FClear.6 mph94%29.86 "Hg10 mi
5:30 am52 °FClear.5 mph88%29.86 "Hg10 mi
5:00 am52 °FClear.6 mph88%29.86 "Hg10 mi
4:30 am54 °FClear.5 mph82%29.86 "Hg10 mi
4:00 am54 °FClear.7 mph82%29.89 "Hg10 mi
3:30 am54 °FClear.6 mph82%29.89 "Hg10 mi
3:00 am52 °FPassing clouds.6 mph94%29.89 "HgN/A
2:30 am54 °FPassing clouds.6 mph88%29.92 "HgN/A
2:00 am54 °FPassing clouds.3 mph88%29.92 "HgN/A
1:30 am54 °FPassing clouds.6 mph88%29.92 "HgN/A
1:00 am52 °FPassing clouds.6 mph94%29.92 "HgN/A
12:30 am52 °FPassing clouds.7 mph94%29.92 "HgN/A
12:00 am54 °FPassing clouds.6 mph88%29.95 "HgN/A
11:30 pm
Mon, Oct 14
54 °FPassing clouds.7 mph88%29.95 "HgN/A
11:00 pm54 °FClear.9 mph88%29.95 "Hg10 mi
10:30 pm54 °FPassing clouds.8 mph88%29.98 "HgN/A
10:00 pm54 °FClear.8 mph88%29.98 "Hg10 mi
9:30 pm54 °FClear.8 mph88%29.98 "Hg10 mi
9:00 pm55 °FPassing clouds.7 mph82%29.98 "HgN/A
8:30 pm55 °FClear.6 mph82%29.98 "Hg10 mi
8:00 pm55 °FPassing clouds.6 mph82%29.98 "HgN/A
7:30 pm55 °FPassing clouds.7 mph82%30.01 "HgN/A
7:00 pm57 °FPassing clouds.6 mph82%30.01 "HgN/A
6:30 pm57 °FPassing clouds.6 mph82%30.01 "HgN/A
6:00 pm59 °FSunny.5 mph77%29.98 "Hg10 mi
5:30 pm61 °FSunny.5 mph68%29.98 "Hg10 mi
5:00 pm63 °FSunny.7 mph64%30.01 "Hg10 mi
4:30 pm66 °FSunny.5 mph60%29.98 "Hg10 mi
4:00 pm66 °FSunny.6 mph60%29.98 "Hg10 mi
3:30 pm66 °FPassing clouds.5 mph56%29.98 "HgN/A
3:00 pm64 °FPassing clouds.3 mph64%29.98 "HgN/A
Weather by CustomWeather, © 2019

See weather overview